Volver al catálogo

STARLINK-4593

ActivoComunicacionesVLEO
NORAD 53633·PAYLOAD·🇺🇸 United States

Lanzado Aug 28, 2022 desde Cape Canaveral Space Force Station

Loading…

Próximos Pases (próximas 24 horas)

TLE

ActualizadoSource: CelesTrak SupGP

Época: Sep 14, 2026, 21:31 UTC

1 53633C 22104AX  26257.89701389  .00013166  00000+0  38917-3 0  2570
2 53633  53.1591  87.7245 0001279  81.6864 156.5269 15.34370917    16

Sigue STARLINK-4593 en tiempo real con AllMySat

Download on the App Store